{"data":{"norad_id":60202,"intl_designator":"2024-124V","name":"STARLINK-32041","alt_names":[],"object_type":"PAYLOAD","status":"ACTIVE","operator":null,"country":"US","launch_date":"2024-07-03","launch_site_code":"AFETR","launch_vehicle":null,"mission":null,"orbit_class":"UNKNOWN","rcs_meters":null,"size_class":null,"mass_kg":null,"dimensions":null,"purposes":["comms"],"wikipedia_slug":null,"has_3d_model":false,"image_url":null,"decayed_at":null,"tle_current":{"epoch":"2026-05-24T21:17:57.860736Z","epoch_age_seconds":78048,"freshness":"FRESH","line1":"1 60202U 24124V   26144.88747524 -.00000400  00000+0 -11336-5 0  9999","line2":"2 60202  53.1607 328.4404 0001008  89.1752 270.9364 15.31697445107161","mean_motion":15.31697445,"eccentricity":0.0001008,"inclination_deg":53.1607,"raan_deg":328.4404,"arg_perigee_deg":89.1752,"mean_anomaly_deg":270.9364,"bstar":-1.1336e-6,"rev_number":10716,"period_min":94.013344782984,"perigee_km":470.05724398944,"apogee_km":471.43797912713,"semimajor_km":6848.8846115583,"source":"CELESTRAK","updated_at":"2026-05-25T13:38:19.197609Z"}}}